Content
SEND FEEDBACK

Daily
Averages
Monthly
Summary
United States of America

SAHUARITA, ARIZONA


Home > North America > United States > Arizona
Elevation: 2700 feet     Latitude: 31 59N     Longitude: 110 59W

WEATHER
 
SELECT A DAY
Number of Records: 106,760;   Date Range: 1/1/02 - 7/29/14
 
SHARE

PRINT THIS DATA

[ ← Previous Day ]
WEATHER ALMANAC - JANUARY 2, 2013
[ Next Day → ]
[ °C ]   °F
Weather ElementAverageHighLow
Temperature47.8 °F60.1 °F (1:53 pm)35.1 °F (3:53 am)
Dewpoint24.4 °F30 °F (9:53 pm)19.9 °F (10:53 am)
Humidity43.3 %76 % (3:53 am)22 % (1:53 pm)
Barometer30.01 in30.08 in (1:53 am)29.94 in (4:53 pm)
Wind Speed6.9 mph19.6 mph (10:53 am)
Wind Gust27.6 mph (10:53 am)
Weather ElementAverage
Visibility10 mi
Wind DirectionESE (99.6 °)

Weather ElementTotal
Precipitation---
Heating Degree Days17.4 (Base 65)
Averaged from 23 records on January 2, 2013
WEATHER CONDITIONS BREAKOUT
WIND DIRECTION BREAKOUT
WEATHER BY HOUR - JANUARY 2, 2013
[ °C ]   °F
Local TimeTemperatureDewpointHumidityBarometerVisibilityWind DirectionWind SpeedGust SpeedPrecipitationEventsConditions
1:53 AM36.0 °F28.0 °F73 %30.08 in10.0 miCalmClear
2:53 AM36.0 °F28.0 °F73 %30.07 in10.0 miCalmClear
3:53 AM35.1 °F28.0 °F76 %30.06 in10.0 miEast (90°)3.5 mphClear
4:53 AM41.0 °F23.0 °F49 %30.04 in10.0 miESE (120°)12.7 mphClear
5:53 AM41.0 °F23.0 °F49 %30.04 in10.0 miESE (120°)13.8 mphClear
6:53 AM41.0 °F21.9 °F47 %30.05 in10.0 miESE (120°)12.7 mphClear
7:53 AM41.0 °F21.9 °F47 %30.06 in10.0 miESE (110°)9.2 mphClear
8:53 AM44.1 °F21.9 °F42 %30.06 in10.0 miEast (100°)11.5 mphClear
9:53 AM48.0 °F21.9 °F36 %30.06 in10.0 miEast (100°)11.5 mphClear
10:53 AM53.1 °F19.9 °F27 %30.04 in10.0 miESE (110°)19.6 mph27.6 mphClear
11:53 AM55.0 °F21.0 °F27 %30.02 in10.0 miEast (100°)15.0 mph21.9 mphClear
12:53 PM57.0 °F21.0 °F25 %29.98 in10.0 miEast (90°)13.8 mph20.7 mphClear
1:53 PM60.1 °F21.0 °F22 %29.96 in10.0 miENE (60°)5.8 mphClear
2:53 PM60.1 °F21.9 °F23 %29.95 in10.0 miNNE (20°)6.9 mph17.3 mphClear
3:53 PM60.1 °F21.9 °F23 %29.95 in10.0 miNorth (360°)6.9 mphClear
4:53 PM59.0 °F21.9 °F24 %29.94 in10.0 miNorth (360°)5.8 mphClear
5:53 PM54.0 °F25.0 °F33 %29.95 in10.0 miNorth (350°)6.9 mphClear
6:53 PM51.1 °F28.0 °F41 %29.98 in10.0 miCalmClear
7:53 PM48.9 °F28.9 °F46 %29.99 in10.0 miCalmClear
8:53 PM46.9 °F28.9 °F50 %30.00 in10.0 miCalmClear
9:53 PM44.1 °F30.0 °F58 %30.01 in10.0 miCalmClear
10:53 PM45.0 °F26.1 °F48 %29.99 in10.0 miEast (80°)3.5 mphClear
11:53 PM41.0 °F27.0 °F57 %30.00 in10.0 miCalmClear
Hourly data recorded from KTUS, located miles away from Sahuarita, Arizona







STORIES FROM OUR PARTNERS